CW1248 Weather Reports


Display with metric or nautical units.
time (UTC)temp
F
wind
direction
speed
MPH
gust
MPH
rain 1hr
in
rain 24hr
in
rain mn
in
humidity
%
barometer
mb
20260510071006 40 234 1.0 4.0 0.00 0.00 0.00 65 1016.4
20260510070502 40 232 2.0 4.0 0.00 0.00 0.00 64 1016.5
20260510070016 40 257 2.0 4.0 0.00 0.00 0.00 64 1016.5
20260510065507 41 249 1.0 2.0 0.00 0.00 0.00 62 1016.5
20260510065012 41 250 1.0 2.0 0.00 0.00 0.00 62 1016.6
20260510064507 41 51 0.0 2.0 0.00 0.00 0.00 62 1016.5
20260510064003 41 279 0.0 2.0 0.00 0.00 0.00 61 1016.4
20260510063505 42 275 1.0 2.0 0.00 0.00 0.00 61 1016.4
20260510063009 42 249 1.0 2.0 0.00 0.00 0.00 60 1016.3
20260510062506 42 221 1.0 2.0 0.00 0.00 0.00 59 1016.3
20260510062007 42 212 1.0 4.0 0.00 0.00 0.00 59 1016.3
20260510061522 42 243 1.0 4.0 0.00 0.00 0.00 59 1016.2
20260510061007 42 255 2.0 6.0 0.00 0.00 0.00 59 1016.2
20260510060507 43 265 2.0 6.0 0.00 0.00 0.00 58 1016.2
20260510060035 43 291 2.0 6.0 0.00 0.00 0.00 57 1016.3
20260510055509 43 272 2.0 7.0 0.00 0.00 0.00 55 1016.3
20260510055008 43 270 3.0 7.0 0.00 0.00 0.00 54 1016.2
20260510054510 44 265 1.0 4.0 0.00 0.00 0.00 52 1016.2
20260510054004 44 265 2.0 4.0 0.00 0.00 0.00 52 1016.0
20260510053504 45 273 2.0 3.0 0.00 0.00 0.00 52 1016.0
20260510053018 45 273 2.0 4.0 0.00 0.00 0.00 53 1015.9
20260510052509 45 257 1.0 4.0 0.00 0.00 0.00 50 1015.9
20260510052007 46 291 2.0 3.0 0.00 0.00 0.00 49 1015.9
20260510051516 46 291 1.0 3.0 0.00 0.00 0.00 50 1015.9
20260510051007 46 273 1.0 3.0 0.00 0.00 0.00 51 1015.9
20260510050508 47 282 0.0 4.0 0.00 0.00 0.00 50 1015.9
20260510050014 47 304 2.0 5.0 0.00 0.00 0.00 49 1016.0
20260510045509 47 309 3.0 7.0 0.00 0.00 0.00 48 1016.0
20260510045010 47 297 2.0 8.0 0.00 0.00 0.00 46 1016.0
20260510044507 47 338 3.0 10.0 0.00 0.00 0.00 45 1016.0
20260510044003 48 321 3.0 10.0 0.00 0.00 0.00 45 1016.1
20260510043506 48 313 4.0 9.0 0.00 0.00 0.00 45 1016.1
20260510043004 48 302 4.0 9.0 0.00 0.00 0.00 44 1015.9
20260510042507 48 311 4.0 10.0 0.00 0.00 0.00 44 1015.9
20260510042011 48 309 3.0 10.0 0.00 0.00 0.00 44 1015.8
20260510041524 49 311 5.0 8.0 0.00 0.00 0.00 43 1015.8
20260510041003 49 298 4.0 9.0 0.00 0.00 0.00 43 1015.7
20260510040504 49 321 4.0 10.0 0.00 0.00 0.00 43 1015.7
20260510040006 49 324 5.0 10.0 0.00 0.00 0.00 42 1015.7
20260510035504 49 321 4.0 9.0 0.00 0.00 0.00 42 1015.6
20260510035005 50 324 4.0 8.0 0.00 0.00 0.00 41 1015.6
20260510034522 50 311 3.0 8.0 0.00 0.00 0.00 41 1015.5
20260510034006 50 317 4.0 9.0 0.00 0.00 0.00 41 1015.5
20260510033507 50 281 5.0 11.0 0.00 0.00 0.00 41 1015.4
20260510033014 50 312 3.0 11.0 0.00 0.00 0.00 41 1015.4
20260510032508 50 279 5.0 13.0 0.00 0.00 0.00 40 1015.4
20260510032008 50 286 7.0 13.0 0.00 0.00 0.00 40 1015.2
20260510031514 50 317 6.0 12.0 0.00 0.00 0.00 41 1015.1
20260510031003 50 295 5.0 11.0 0.00 0.00 0.00 41 1015.1
20260510030503 50 300 3.0 9.0 0.00 0.00 0.00 40 1015.0
20260510030016 50 293 4.0 10.0 0.00 0.00 0.00 40 1015.0
20260510025506 51 291 3.0 10.0 0.00 0.00 0.00 40 1014.9
20260510025004 51 304 4.0 10.0 0.00 0.00 0.00 40 1014.9
20260510024523 51 307 5.0 10.0 0.00 0.00 0.00 40 1014.8
20260510024006 51 252 4.0 9.0 0.00 0.00 0.00 39 1014.6
20260510023506 51 317 5.0 9.0 0.00 0.00 0.00 39 1014.5
20260510023023 51 309 3.0 9.0 0.00 0.00 0.00 39 1014.5
20260510022503 52 273 5.0 10.0 0.00 0.00 0.00 38 1014.4
20260510022007 52 241 5.0 10.0 0.00 0.00 0.00 37 1014.3
20260510021527 52 286 5.0 10.0 0.00 0.00 0.00 37 1014.2
20260510021004 52 311 5.0 10.0 0.00 0.00 0.00 37 1014.1
20260510020502 52 252 4.0 10.0 0.00 0.00 0.00 36 1014.0
20260510020010 53 293 4.0 14.0 0.00 0.00 0.00 36 1013.8
20260510015503 53 309 5.0 14.0 0.00 0.00 0.00 36 1013.7
20260510015005 53 324 5.0 11.0 0.00 0.00 0.00 35 1013.5
20260510014520 53 262 4.0 10.0 0.00 0.00 0.00 35 1013.4
20260510014008 54 275 4.0 12.0 0.00 0.00 0.00 35 1013.3
20260510013510 54 265 5.0 14.0 0.00 0.00 0.00 34 1013.3
20260510013024 54 324 6.0 14.0 0.00 0.00 0.00 34 1013.2
20260510012506 54 321 7.0 14.0 0.00 0.00 0.00 34 1013.2
20260510012007 54 293 6.0 18.0 0.00 0.00 0.00 33 1013.0
20260510011530 55 275 9.0 18.0 0.00 0.00 0.00 33 1012.9
20260510011010 55 275 9.0 17.0 0.00 0.00 0.00 33 1012.8
20260510010508 55 272 6.0 14.0 0.00 0.00 0.00 34 1012.8
20260510010023 55 249 5.0 14.0 0.00 0.00 0.00 33 1012.8
20260510005508 56 261 7.0 14.0 0.00 0.00 0.00 33 1012.6
20260510005006 56 277 7.0 16.0 0.00 0.00 0.00 32 1012.4
20260510004523 56 277 7.0 16.0 0.00 0.00 0.00 32 1012.4
20260510004007 56 321 6.0 16.0 0.00 0.00 0.00 32 1012.3
20260510003509 57 319 8.0 15.0 0.00 0.00 0.00 31 1012.3
20260510003033 57 296 6.0 17.0 0.00 0.00 0.00 31 1012.4
20260510002509 57 287 8.0 18.0 0.00 0.00 0.00 31 1012.3
20260510002013 58 281 9.0 18.0 0.00 0.00 0.00 31 1012.3
20260510001529 58 286 5.0 20.0 0.00 0.00 0.00 30 1012.3
20260510001007 58 307 6.0 20.0 0.00 0.00 0.00 31 1012.3
20260510000510 58 270 10.0 19.0 0.00 0.00 0.00 30 1012.2
20260510000027 58 242 12.0 19.0 0.00 0.00 0.00 29 1012.1
20260509235506 58 300 7.0 19.0 0.00 0.00 0.00 29 1012.0
20260509235009 59 305 12.0 20.0 0.00 0.00 0.00 29 1012.1
20260509234534 59 319 11.0 21.0 0.00 0.00 0.00 30 1012.1
20260509234008 59 291 12.0 21.0 0.00 0.00 0.00 30 1012.0
20260509233508 59 324 6.0 20.0 0.00 0.00 0.00 29 1011.8
20260509233024 59 309 11.0 20.0 0.00 0.00 0.00 30 1011.8
20260509232511 59 290 10.0 19.0 0.00 0.00 0.00 28 1011.8
20260509232010 59 307 6.0 23.0 0.00 0.00 0.00 31 1011.8
20260509231528 59 327 11.0 23.0 0.00 0.00 0.00 30 1011.7
20260509231010 59 316 11.0 23.0 0.00 0.00 0.00 29 1011.6
20260509230510 60 316 11.0 22.0 0.00 0.00 0.00 28 1011.5
20260509230021 60 287 11.0 19.0 0.00 0.00 0.00 28 1011.5
20260509225510 60 316 7.0 15.0 0.00 0.00 0.00 28 1011.3
20260509225007 61 11 6.0 17.0 0.00 0.00 0.00 29 1011.2
20260509224504 61 298 9.0 17.0 0.00 0.00 0.00 29 1011.1
20260509224003 61 314 6.0 16.0 0.00 0.00 0.00 27 1011.2
20260509223506 60 178 4.0 16.0 0.00 0.00 0.00 28 1011.1
20260509223004 61 337 7.0 19.0 0.00 0.00 0.00 28 1011.1
20260509222503 61 15 9.0 22.0 0.00 0.00 0.00 27 1011.1
20260509222003 61 298 6.0 22.0 0.00 0.00 0.00 31 1011.0
20260509221504 61 306 7.0 21.0 0.00 0.00 0.00 28 1010.9
20260509221003 61 279 5.0 21.0 0.00 0.00 0.00 29 1010.8
20260509220503 61 286 9.0 20.0 0.00 0.00 0.00 29 1010.8
20260509220008 61 281 9.0 23.0 0.00 0.00 0.00 29 1010.8
20260509215506 60 259 11.0 24.0 0.00 0.00 0.00 30 1010.9
20260509215003 61 312 13.0 24.0 0.00 0.00 0.00 28 1011.0
20260509214502 61 310 7.0 21.0 0.00 0.00 0.00 28 1010.9
20260509214007 61 9 10.0 21.0 0.00 0.00 0.00 28 1010.8
20260509213502 61 297 8.0 22.0 0.00 0.00 0.00 29 1010.7
20260509213004 61 298 9.0 22.0 0.00 0.00 0.00 31 1010.7
20260509212503 61 252 10.0 20.0 0.00 0.00 0.00 30 1010.5
20260509212005 62 323 7.0 20.0 0.00 0.00 0.00 29 1010.4
20260509211506 62 344 9.0 19.0 0.00 0.00 0.00 31 1010.5
20260509211002 62 93 2.0 20.0 0.00 0.00 0.00 37 1010.4
20260509210502 61 307 7.0 20.0 0.00 0.00 0.00 30 1010.3
20260509210004 60 300 9.0 19.0 0.00 0.00 0.00 34 1010.2
20260509205501 60 247 8.0 23.0 0.00 0.00 0.00 31 1010.3
20260509205003 60 313 13.0 25.0 0.00 0.00 0.00 30 1010.2
20260509204507 60 306 14.0 25.0 0.00 0.00 0.00 31 1010.3
20260509204003 60 292 12.0 23.0 0.00 0.00 0.00 29 1010.1
20260509203502 60 284 8.0 21.0 0.00 0.00 0.00 33 1010.4
20260509203010 60 26 9.0 21.0 0.00 0.00 0.00 31 1010.6
20260509202503 60 295 13.0 22.0 0.00 0.00 0.00 31 1010.3
20260509202003 60 305 13.0 25.0 0.00 0.00 0.00 30 1010.4
20260509201504 61 273 15.0 25.0 0.00 0.00 0.00 31 1010.4
20260509201002 61 280 5.0 17.0 0.00 0.00 0.00 37 1010.2
20260509200502 61 301 9.0 21.0 0.00 0.00 0.00 33 1010.2
20260509200005 61 287 4.0 21.0 0.00 0.00 0.00 34 1010.1
20260509195504 60 63 4.0 25.0 0.00 0.00 0.00 32 1010.2
20260509195003 61 34 10.0 25.0 0.00 0.00 0.00 30 1010.1
20260509194504 60 43 7.0 23.0 0.00 0.00 0.00 34 1009.9
20260509194003 60 319 10.0 23.0 0.00 0.00 0.00 35 1010.0
20260509193503 60 307 11.0 22.0 0.00 0.00 0.00 32 1009.9
20260509193004 60 338 10.0 25.0 0.00 0.00 0.00 31 1010.0
20260509192503 60 24 9.0 25.0 0.00 0.00 0.00 30 1009.9
20260509192003 60 346 6.0 21.0 0.00 0.00 0.00 36 1009.8
20260509191513 60 275 10.0 20.0 0.00 0.00 0.00 35 1009.8
20260509191005 59 13 10.0 23.0 0.00 0.00 0.00 36 1009.9
20260509190502 60 277 12.0 23.0 0.00 0.00 0.00 32 1009.9
20260509190008 60 279 8.0 18.0 0.00 0.00 0.00 34 1009.7
20260509185502 60 351 7.0 19.0 0.00 0.00 0.00 39 1009.8
20260509185002 59 296 10.0 21.0 0.00 0.00 0.00 38 1009.7
20260509184507 60 23 12.0 21.0 0.00 0.00 0.00 39 1009.6
20260509184002 60 153 7.0 20.0 0.00 0.00 0.00 40 1009.4
20260509183502 59 334 8.0 20.0 0.00 0.00 0.00 37 1009.6
20260509183010 59 287 8.0 24.0 0.00 0.00 0.00 37 1009.6
20260509182503 59 325 8.0 25.0 0.00 0.00 0.00 37 1009.6
20260509182006 60 317 12.0 25.0 0.00 0.00 0.00 35 1009.4
20260509181505 60 339 10.0 22.0 0.00 0.00 0.00 37 1009.3
20260509181002 60 257 7.0 20.0 0.00 0.00 0.00 45 1009.3
20260509180503 60 324 9.0 20.0 0.00 0.00 0.00 37 1009.3
20260509180008 59 32 6.0 19.0 0.00 0.00 0.00 39 1009.3
20260509175504 59 312 12.0 19.0 0.00 0.00 0.00 38 1009.3
20260509175004 59 22 10.0 19.0 0.00 0.00 0.00 36 1009.2
20260509174510 60 52 10.0 19.0 0.00 0.00 0.00 35 1009.1
20260509174005 60 315 7.0 19.0 0.00 0.00 0.00 40 1009.1
20260509173502 60 305 10.0 22.0 0.00 0.00 0.00 39 1009.1
20260509173010 59 262 13.0 24.0 0.00 0.00 0.00 38 1009.0
20260509172504 59 305 12.0 24.0 0.00 0.00 0.00 34 1009.2
20260509172003 59 291 11.0 24.0 0.00 0.00 0.00 37 1009.1
20260509171511 59 336 12.0 25.0 0.00 0.00 0.00 36 1009.0
20260509171005 59 273 11.0 25.0 0.00 0.00 0.00 36 1008.9
20260509170503 59 196 9.0 21.0 0.00 0.00 0.00 38 1008.9
20260509170013 59 265 7.0 25.0 0.00 0.00 0.00 36 1008.9
20260509165502 59 330 9.0 25.0 0.00 0.00 0.00 37 1009.0
20260509165002 59 280 11.0 19.0 0.00 0.00 0.00 35 1008.8
20260509164513 59 292 10.0 19.0 0.00 0.00 0.00 38 1008.7
20260509164009 58 208 11.0 22.0 0.00 0.00 0.00 41 1008.7
20260509163505 58 293 10.0 23.0 0.00 0.00 0.00 38 1008.7
20260509163021 58 45 8.0 23.0 0.00 0.00 0.00 37 1008.6
20260509162507 58 311 8.0 21.0 0.00 0.00 0.00 39 1008.6
20260509162006 58 165 8.0 22.0 0.00 0.00 0.00 41 1008.5
20260509161527 58 289 9.0 22.0 0.00 0.00 0.00 41 1008.2
20260509161006 57 15 10.0 22.0 0.00 0.00 0.00 40 1008.5
20260509160506 57 327 7.0 25.0 0.00 0.00 0.00 42 1008.2
20260509160022 57 308 9.0 25.0 0.00 0.00 0.00 44 1008.2
20260509155506 57 333 12.0 19.0 0.00 0.00 0.00 43 1008.2
20260509155008 57 323 8.0 22.0 0.00 0.00 0.00 43 1008.1
20260509154514 57 329 6.0 22.0 0.00 0.00 0.00 44 1008.1
20260509154007 57 38 7.0 17.0 0.00 0.00 0.00 46 1008.1
20260509153512 56 309 6.0 17.0 0.00 0.00 0.00 46 1007.9
20260509153014 56 337 8.0 17.0 0.00 0.00 0.00 46 1007.9
20260509152505 56 334 8.0 16.0 0.00 0.00 0.00 47 1007.9
20260509152009 56 315 8.0 20.0 0.00 0.00 0.00 47 1007.9
20260509151521 55 297 11.0 20.0 0.00 0.00 0.00 47 1007.7
20260509151007 55 57 5.0 23.0 0.00 0.00 0.00 50 1007.7
20260509150509 55 324 10.0 23.0 0.00 0.00 0.00 49 1007.7
20260509150023 55 19 9.0 18.0 0.00 0.00 0.00 49 1007.7
20260509145506 54 196 5.0 15.0 0.00 0.00 0.00 54 1007.6
20260509145006 54 295 5.0 19.0 0.00 0.00 0.00 56 1007.6
20260509144517 53 323 8.0 19.0 0.00 0.00 0.00 57 1007.4
20260509144006 53 93 7.0 19.0 0.00 0.00 0.00 56 1007.4
20260509143508 52 311 9.0 19.0 0.00 0.00 0.00 58 1007.3
20260509143023 52 297 9.0 18.0 0.00 0.00 0.00 60 1007.3
20260509142509 52 360 9.0 18.0 0.00 0.00 0.00 61 1007.2
20260509142005 52 331 11.0 18.0 0.00 0.00 0.00 62 1007.1
20260509141524 51 80 7.0 21.0 0.00 0.00 0.00 65 1007.0
20260509141008 51 348 6.0 21.0 0.00 0.00 0.00 63 1007.0
20260509140509 51 303 6.0 20.0 0.00 0.00 0.00 65 1006.8
20260509140018 51 18 6.0 20.0 0.00 0.00 0.00 66 1006.8
20260509135513 52 332 10.0 20.0 0.00 0.00 0.00 66 1006.6
20260509135009 52 338 6.0 19.0 0.00 0.00 0.00 67 1006.5
20260509134518 52 340 7.0 19.0 0.00 0.00 0.00 67 1006.4
20260509134002 52 15 6.0 17.0 0.00 0.00 0.00 70 1006.4
20260509133503 51 317 7.0 17.0 0.00 0.00 0.00 69 1006.2
20260509133003 51 279 5.0 18.0 0.00 0.00 0.00 68 1006.2
20260509132502 51 325 7.0 20.0 0.00 0.00 0.00 68 1006.2
20260509132004 52 344 6.0 20.0 0.00 0.00 0.00 69 1006.1
20260509131513 52 178 8.0 19.0 0.00 0.00 0.00 69 1006.0
20260509131006 51 298 8.0 18.0 0.00 0.00 0.00 71 1005.9
20260509130505 51 309 10.0 18.0 0.00 0.00 0.00 71 1005.8
20260509130006 51 323 5.0 12.0 0.00 0.00 0.00 73 1005.7
20260509125507 51 338 4.0 18.0 0.00 0.00 0.00 72 1005.7
20260509125005 51 50 6.0 21.0 0.00 0.00 0.00 72 1005.6
20260509124507 51 286 9.0 21.0 0.00 0.00 0.00 71 1005.4
20260509124007 51 296 10.0 21.0 0.00 0.00 0.00 71 1005.3
20260509123506 51 284 12.0 21.0 0.00 0.00 0.00 71 1005.3
20260509123009 51 309 8.0 21.0 0.00 0.00 0.00 72 1005.2
20260509122503 51 315 8.0 21.0 0.00 0.00 0.00 72 1005.1
20260509122004 51 295 10.0 20.0 0.00 0.00 0.00 72 1005.0
20260509121513 51 298 11.0 23.0 0.00 0.00 0.00 73 1004.9
20260509121002 51 252 10.0 23.0 0.00 0.00 0.00 72 1004.9
20260509120505 51 298 8.0 19.0 0.00 0.00 0.00 72 1004.8
20260509120017 51 277 8.0 17.0 0.00 0.00 0.00 70 1004.7
20260509115506 51 261 6.0 13.0 0.00 0.00 0.00 70 1004.6
20260509115003 51 298 9.0 13.0 0.00 0.00 0.00 69 1004.5
20260509114514 50 291 6.0 12.0 0.00 0.00 0.00 68 1004.5
20260509114009 50 281 3.0 9.0 0.00 0.00 0.00 68 1004.4
20260509113506 50 257 3.0 8.0 0.00 0.00 0.00 68 1004.3
20260509113006 50 257 2.0 7.0 0.00 0.00 0.00 68 1004.2
20260509112503 50 271 2.0 7.0 0.00 0.00 0.00 68 1004.0
20260509112005 50 265 4.0 7.0 0.00 0.00 0.00 68 1003.9
20260509111507 50 259 2.0 6.0 0.00 0.00 0.00 69 1003.9
20260509111006 50 269 3.0 6.0 0.00 0.00 0.00 68 1003.8
20260509110507 50 291 1.0 7.0 0.00 0.00 0.00 68 1003.8
20260509110021 50 249 3.0 7.0 0.00 0.00 0.00 68 1003.8
20260509105502 50 244 2.0 6.0 0.00 0.00 0.00 68 1003.7
20260509105007 51 257 2.0 6.0 0.00 0.00 0.00 68 1003.6
20260509104523 51 265 2.0 6.0 0.00 0.00 0.00 66 1003.7
20260509104002 51 284 3.0 8.0 0.00 0.00 0.00 66 1003.6
20260509103503 51 296 4.0 8.0 0.00 0.00 0.00 65 1003.7
20260509103006 51 265 2.0 8.0 0.00 0.00 0.00 64 1003.3
20260509102503 51 128 3.0 7.0 0.00 0.00 0.00 63 1003.1
20260509102007 51 158 1.0 5.0 0.00 0.00 0.00 62 1003.2
20260509101516 51 165 1.0 5.0 0.00 0.00 0.00 62 1003.4
20260509101010 51 236 2.0 4.0 0.00 0.00 0.00 64 1003.6
20260509100502 51 250 2.0 3.0 0.00 0.00 0.00 60 1003.4
20260509100016 51 137 0.0 7.0 0.00 0.00 0.00 59 1003.4
20260509095506 51 309 2.0 9.0 0.00 0.00 0.00 59 1003.7
20260509095008 51 307 2.0 9.0 0.00 0.00 0.00 59 1003.9
20260509094511 50 291 2.0 11.0 0.00 0.00 0.00 59 1003.9
20260509094007 50 323 4.0 11.0 0.00 0.00 0.00 59 1003.8
20260509093505 50 337 4.0 9.0 0.00 0.00 0.00 59 1003.7
20260509093012 50 328 3.0 8.0 0.00 0.00 0.00 58 1003.7
20260509092502 49 336 2.0 8.0 0.00 0.00 0.00 57 1003.8
20260509092005 49 17 2.0 5.0 0.00 0.00 0.00 56 1003.6
20260509091518 49 304 2.0 5.0 0.00 0.00 0.00 55 1003.6
20260509091003 49 312 2.0 5.0 0.00 0.00 0.00 55 1003.6
20260509090506 49 309 2.0 6.0 0.00 0.00 0.00 55 1003.4
20260509090024 49 312 2.0 6.0 0.00 0.00 0.00 55 1003.4
20260509085508 49 328 2.0 7.0 0.00 0.00 0.00 53 1003.2
20260509085006 49 316 2.0 9.0 0.00 0.00 0.00 53 1003.4
20260509084525 49 300 2.0 10.0 0.00 0.00 0.00 54 1003.3
20260509084014 49 286 3.0 10.0 0.00 0.00 0.00 54 1003.3
20260509083502 49 265 3.0 14.0 0.00 0.00 0.00 54 1003.2
20260509083013 49 319 6.0 14.0 0.00 0.00 0.00 55 1003.4
20260509082506 48 300 6.0 9.0 0.00 0.00 0.00 56 1002.7
20260509082007 48 261 3.0 8.0 0.00 0.00 0.00 57 1002.5
20260509081515 48 238 4.0 8.0 0.00 0.00 0.00 58 1002.5
20260509081010 48 259 2.0 7.0 0.00 0.00 0.00 59 1002.4
20260509080507 48 234 2.0 6.0 0.00 0.00 0.00 59 1002.4
20260509080026 48 216 2.0 6.0 0.00 0.00 0.00 59 1002.4
20260509075508 48 275 3.0 5.0 0.00 0.00 0.00 59 1002.4
20260509075007 48 247 2.0 5.0 0.00 0.00 0.00 59 1002.4
20260509074525 48 232 2.0 5.0 0.00 0.00 0.00 60 1002.2
20260509074006 48 238 2.0 4.0 0.00 0.00 0.00 61 1002.2
20260509073509 48 219 2.0 3.0 0.00 0.00 0.00 60 1002.2
20260509073029 48 232 2.0 4.0 0.00 0.00 0.00 60 1002.3
20260509072509 48 221 2.0 4.0 0.00 0.00 0.00 59 1002.3
20260509072007 48 226 2.0 3.0 0.00 0.00 0.00 60 1002.4
20260509071521 48 205 1.0 3.0 0.00 0.00 0.00 60 1002.5